Overview Statistics Trail Chart Weather Telemetry Raw packets
 

This is the latest recevied weather packets stored in our database for station/object OK1TBM-13. If no packets are shown the sender has not sent any weather packets the latest 10 day(s).

<< 75 76 77 78 79 80 81 >>
Time Temp. Humidity Pressure Rain* Wind** Luminosity Snow
1787963701 18.33° C 99% 1012.5 hPa 10.41 mm - 0 W/m² -
1787963401 18.33° C 99% 1012.5 hPa 10.41 mm - 0 W/m² -
1787963101 18.33° C 99% 1012.5 hPa 11.94 mm - 0 W/m² -
1787962201 18.89° C 99% 1011.8 hPa 6.35 mm - 0 W/m² -
1787961901 18.89° C 99% 1011.8 hPa 7.87 mm - 0 W/m² -
1787961601 19.44° C 99% 1012.2 hPa 9.4 mm - 0 W/m² -
1787961300 19.44° C 99% 1012.2 hPa 7.87 mm - 0 W/m² -
1787961001 19.44° C 99% 1012.2 hPa 5.08 mm - 0 W/m² -
1787960701 19.44° C 99% 1011.8 hPa 3.81 mm - 0 W/m² -
1787960401 19.44° C 99% 1011.8 hPa 3.81 mm - 0 W/m² -
1787960101 19.44° C 99% 1011.5 hPa 6.35 mm - 0 W/m² -
1787959802 19.44° C 99% 1011.5 hPa 7.87 mm - 0 W/m² -
1787958901 19.44° C 99% 1012.2 hPa 18.8 mm - 0 W/m² -
1787958601 19.44° C 99% 1012.2 hPa 10.41 mm - 0 W/m² -
1787958302 19.44° C 99% 1012.2 hPa 2.54 mm - 0 W/m² -
1787958002 19.44° C 99% 1011.5 hPa 1.27 mm - 0 W/m² -
1787957701 19.44° C 99% 1011.5 hPa 0 mm - 0 W/m² -
1787957402 19.44° C 99% 1011.5 hPa 0 mm - 0 W/m² -
1787957101 19.44° C 99% 1011.5 hPa 0 mm - 0 W/m² -
1787956802 19.44° C 99% 1011.5 hPa 0 mm - 0 W/m² -
1787956501 19.44° C 99% 1011.5 hPa 0 mm - 0 W/m² -
1787956202 19.44° C 99% 1011.5 hPa 0 mm - 0 W/m² -
1787955901 19.44° C 99% 1011.5 hPa 0 mm - 0 W/m² -
1787955601 19.44° C 99% 1011.2 hPa 0 mm - 0 W/m² -
1787955301 19.44° C 99% 1011.2 hPa 0 mm - 0 W/m² -

* Rain latest hour (hover to see other rain measurements)
** Current wind speed in m/s (hover to see current wind gust speed)